TimeEDT,TemperatureF,Dew PointF,Humidity,Sea Level PressureIn,VisibilityMPH,Wind Direction,Wind SpeedMPH,Gust SpeedMPH,PrecipitationIn,Events,Conditions,WindDirDegrees,DateUTC
12:11 AM,64.4,64.4,100,30.14,6.0,Calm,Calm,-,N/A,,Partly Cloudy,0,2013-08-20 04:11:00
12:54 AM,63.0,63.0,100,30.12,4.0,Calm,Calm,-,N/A,,Partly Cloudy,0,2013-08-20 04:54:00
1:54 AM,63.0,63.0,100,30.12,4.0,Calm,Calm,-,N/A,,Scattered Clouds,0,2013-08-20 05:54:00
2:13 AM,62.6,62.6,100,30.14,4.0,Calm,Calm,-,N/A,,Mostly Cloudy,0,2013-08-20 06:13:00
2:54 AM,62.1,62.1,100,30.12,4.0,Calm,Calm,-,N/A,,Overcast,0,2013-08-20 06:54:00
3:54 AM,62.1,62.1,100,30.12,4.0,Calm,Calm,-,N/A,,Overcast,0,2013-08-20 07:54:00
4:48 AM,60.8,60.8,100,30.15,0.2,Calm,Calm,-,N/A,Fog,Fog,0,2013-08-20 08:48:00
4:54 AM,61.0,61.0,100,30.12,0.2,Calm,Calm,-,N/A,Fog,Fog,0,2013-08-20 08:54:00
5:54 AM,60.1,60.1,100,30.13,0.2,Calm,Calm,-,N/A,Fog,Fog,0,2013-08-20 09:54:00
6:54 AM,60.1,60.1,100,30.15,0.2,Calm,Calm,-,N/A,Fog,Fog,0,2013-08-20 10:54:00
7:54 AM,61.0,61.0,100,30.17,0.2,East,3.5,-,N/A,Fog,Fog,80,2013-08-20 11:54:00
8:54 AM,63.0,63.0,100,30.18,0.2,Calm,Calm,-,N/A,Fog,Fog,0,2013-08-20 12:54:00
9:34 AM,64.4,64.4,100,30.20,1.5,North,3.5,-,N/A,,Scattered Clouds,10,2013-08-20 13:34:00
9:54 AM,66.9,64.9,93,30.19,10.0,Calm,Calm,-,N/A,,Partly Cloudy,0,2013-08-20 13:54:00
10:54 AM,75.0,66.0,73,30.20,10.0,NE,4.6,-,N/A,,Partly Cloudy,50,2013-08-20 14:54:00
11:54 AM,78.1,64.9,64,30.19,10.0,NNE,4.6,-,N/A,,Scattered Clouds,30,2013-08-20 15:54:00
12:54 PM,80.1,60.1,50,30.19,10.0,ENE,8.1,-,N/A,,Scattered Clouds,60,2013-08-20 16:54:00
1:54 PM,82.0,63.0,52,30.18,10.0,Calm,Calm,-,N/A,,Scattered Clouds,0,2013-08-20 17:54:00
2:54 PM,82.0,63.0,52,30.16,10.0,Calm,Calm,-,N/A,,Scattered Clouds,0,2013-08-20 18:54:00
3:54 PM,82.0,63.0,52,30.13,10.0,SSE,4.6,-,N/A,,Partly Cloudy,150,2013-08-20 19:54:00
4:54 PM,82.0,62.1,51,30.11,10.0,Calm,Calm,-,N/A,,Partly Cloudy,0,2013-08-20 20:54:00
5:54 PM,82.9,64.0,53,30.11,10.0,NNE,4.6,-,N/A,,Partly Cloudy,20,2013-08-20 21:54:00
6:54 PM,82.0,64.9,56,30.11,10.0,North,3.5,-,N/A,,Clear,10,2013-08-20 22:54:00
7:54 PM,77.0,68.0,74,30.11,10.0,Calm,Calm,-,N/A,,Partly Cloudy,0,2013-08-20 23:54:00
8:54 PM,73.0,69.1,87,30.13,10.0,Calm,Calm,-,N/A,,Clear,0,2013-08-21 00:54:00
9:54 PM,69.1,69.1,100,30.14,7.0,Calm,Calm,-,N/A,,Clear,0,2013-08-21 01:54:00
10:54 PM,69.1,68.0,96,30.15,7.0,Calm,Calm,-,N/A,,Clear,0,2013-08-21 02:54:00
11:54 PM,68.0,66.9,96,30.15,6.0,Calm,Calm,-,N/A,,Scattered Clouds,0,2013-08-21 03:54:00